Stations météo

Publicité
Putbus, Allemagne (10093): Température de l'air & dewpoint: 04.12.2018 16:00:00 - 10.12.2018 16:00:00 (CET)Putbus, Allemagne (10093): Température de l'air 5cm & Température de l'air -5cm: 04.12.2018 16:00:00 - 10.12.2018 16:00:00 (CET)Putbus, Allemagne (10093): Température de l'air -20cm & Température de l'air -100cm: 04.12.2018 16:00:00 - 10.12.2018 16:00:00 (CET)Putbus, Allemagne (10093): Vitesse du vent & gusts: 04.12.2018 16:00:00 - 10.12.2018 16:00:00 (CET)Putbus, Allemagne (10093): Direction du vent: 04.12.2018 16:00:00 - 10.12.2018 16:00:00 (CET)Putbus, Allemagne (10093): reduced air pressure: 04.12.2018 16:00:00 - 10.12.2018 16:00:00 (CET)Putbus, Allemagne (10093): visibility: 04.12.2018 16:00:00 - 10.12.2018 16:00:00 (CET)Putbus, Allemagne (10093): Ensoleillement: 04.12.2018 16:00:00 - 10.12.2018 16:00:00 (CET)Putbus, Allemagne (10093): Quantités de précipitations: 04.12.2018 16:00:00 - 10.12.2018 16:00:00 (CET)
Date & Time tt [°C] td [°C] tt 5cm [°C] tt -5cm [°C] tt -20cm [°C] tt -100cm [°C] ff [km/h] ff [knt] fx [km/h] fx [knt] dd ppp [hPa] vv [km] sd [min] rr [mm]
10.12.2018 16:00:00 4,2 2,1 3,1 3,8 5,0 7,6 31 17 46 25 W 1004,3 3,0 0 0,1
10.12.2018 15:00:00 5,0 1,8 4,2 4,2 5,0 7,6 31 17 55 30 W 1004,2 35 0 0,0
10.12.2018 14:00:00 5,3 1,5 4,5 4,6 5,0 7,6 27 15 45 25 W 1004,1 31 1 0,0
10.12.2018 13:00:00 5,4 1,6 5,3 4,8 4,9 7,6 29 15 48 26 W 1004,3 35 1 0,0
10.12.2018 12:00:00 5,1 1,8 4,8 4,5 4,8 7,6 31 17 44 24 W 1004,3 26 0 0,1
10.12.2018 11:00:00 5,1 2,1 4,4 4,3 4,8 7,6 28 15 46 25 W 1004,1 41 1 0,2
10.12.2018 10:00:00 5,2 1,9 4,9 3,9 4,8 7,6 30 16 51 28 W 1003,6 28 0 0,0
10.12.2018 09:00:00 5,0 1,6 4,6 3,6 4,8 7,6 29 16 49 26 W 1003,0 30 0 0,0
10.12.2018 08:00:00 5,1 1,2 4,6 3,6 4,8 7,6 27 14 49 26 WNW 1002,5 29 0 0,0
10.12.2018 07:00:00 5,4 0,9 4,8 3,3 4,9 7,6 29 16 49 27 WNW 1001,8 32 0 0,0
10.12.2018 06:00:00 4,6 1,2 3,1 3,4 5,0 7,6 31 17 55 30 WNW 1001,3 32 0 0,0
10.12.2018 05:00:00 5,2 0,8 4,3 3,3 5,1 7,6 24 13 46 25 WNW 1000,7 38 0 0,0
10.12.2018 04:00:00 4,8 1,2 3,9 3,4 5,2 7,6 26 14 44 24 WNW 1000,1 30 0 0,0
10.12.2018 03:00:00 5,2 1,8 4,6 3,8 5,3 7,6 28 15 42 23 WNW 999,4 29 0 0,0
10.12.2018 02:00:00 4,8 3,0 4,4 3,2 5,5 7,6 18 10 28 15 W 998,9 45 0 0,0
10.12.2018 01:00:00 4,1 1,6 2,2 3,0 5,7 7,5 18 10 34 19 W 998,3 52 0 0,0
10.12.2018 00:00:00 4,4 1,5 3,1 3,9 5,9 7,5 20 11 45 24 WNW 997,7 55 0 0,0
09.12.2018 23:00:00 5,0 0,6 4,3 4,5 6,0 7,5 28 15 49 26 NW 996,2 56 0 0,0
09.12.2018 22:00:00 5,7 2,6 5,1 5,3 6,1 7,5 29 16 46 25 NW 994,5 51 0 0,0
09.12.2018 21:00:00 5,9 4,5 5,4 5,5 6,2 7,5 23 12 40 22 WNW 992,8 17 0 0,0
09.12.2018 20:00:00 5,7 4,4 5,0 5,6 6,2 7,5 25 14 42 23 WNW 991,4 15 0 1,3
09.12.2018 19:00:00 6,3 4,5 5,4 5,8 6,3 7,5 26 14 36 20 W 990,4 36 0 0,0
09.12.2018 18:00:00 6,3 5,3 5,7 6,0 6,3 7,5 22 12 41 22 W 989,6 33 0 0,6
09.12.2018 17:00:00 6,5 5,3 5,9 6,0 6,3 7,5 19 11 36 19 W 989,2 6 0 0,1
09.12.2018 16:00:00 6,8 4,9 6,3 6,1 6,4 7,5 20 11 35 19 WSW 988,8 48 0 0,0
09.12.2018 15:00:00 6,8 5,1 5,8 6,7 6,3 7,5 25 13 38 20 W 988,2 42 0 0,0
09.12.2018 14:00:00 6,8 5,6 6,4 6,9 6,2 7,5 26 14 39 21 W 987,7 44 0 0,4
09.12.2018 13:00:00 6,8 5,8 6,5 6,8 6,1 7,5 20 11 36 19 W 987,1 26 0 0,4
09.12.2018 12:00:00 6,8 5,4 6,5 6,5 6,0 7,5 24 13 38 20 WSW 986,9 12 0 0,0
09.12.2018 11:00:00 6,8 5,2 6,8 6,3 5,9 7,5 22 12 40 21 WSW 986,5 41 0 0,0
09.12.2018 10:00:00 6,7 5,4 6,7 6,0 5,8 7,5 26 14 42 23 W 985,9 43 0 0,0
09.12.2018 09:00:00 6,4 5,5 6,1 5,6 5,8 7,5 21 12 31 17 W 985,1 26 0 0,0
09.12.2018 08:00:00 6,0 5,3 5,8 5,4 5,8 7,5 21 11 30 16 W 984,3 26 0 0,2
09.12.2018 07:00:00 5,8 5,5 5,6 5,4 5,8 7,5 19 10 32 17 W 983,7 4,0 0 0,1
09.12.2018 06:00:00 5,7 5,5 5,6 5,4 5,8 7,4 7 4 13 7 WNW 983,1 6 0 0,1
09.12.2018 05:00:00 5,2 5,2 5,1 5,3 5,8 7,4 8 4 13 7 SSE 983,3 4,4 0 1,0
09.12.2018 04:00:00 5,3 5,2 5,1 5,2 5,9 7,4 7 4 25 14 SSE 984,4 3,7 0 2,9
09.12.2018 03:00:00 5,7 4,9 5,2 5,2 5,9 7,4 21 11 42 23 SSW 985,9 3,4 0 0,7
09.12.2018 02:00:00 6,4 3,9 6,0 5,0 6,0 7,4 20 11 34 18 SSW 986,5 29 0 0,0
09.12.2018 01:00:00 6,3 4,0 5,5 4,8 6,2 7,4 23 12 42 23 SSW 987,7 30 0 0,0
09.12.2018 00:00:00 6,5 4,2 5,3 5,3 6,3 7,4 21 11 51 28 SW 988,7 35 0 0,0
08.12.2018 23:00:00 7,1 5,1 6,3 6,1 6,3 7,4 24 13 45 25 SW 989,3 34 0 0,4
08.12.2018 22:00:00 6,9 6,0 6,3 6,2 6,2 7,4 27 14 49 27 SW 989,9 1,6 0 0,8
08.12.2018 21:00:00 7,1 5,5 6,4 6,2 6,2 7,4 26 14 56 30 SW 990,2 13 0 0,3
08.12.2018 20:00:00 7,3 5,6 6,4 6,2 6,2 7,4 23 12 46 25 SW 990,2 9 0 0,3
08.12.2018 19:00:00 7,0 5,8 6,4 6,1 6,2 7,3 23 12 51 27 SW 990,5 17 0 0,1
08.12.2018 18:00:00 6,8 5,4 6,3 6,0 6,2 7,3 26 14 46 25 SSW 991,1 17 0 0,1
08.12.2018 17:00:00 6,8 5,1 6,1 6,0 6,2 7,3 26 14 49 26 SW 991,5 9 0 0,1
08.12.2018 16:00:00 7,2 4,6 7,0 6,0 6,2 7,3 27 14 51 28 SW 992,1 47 0 0,0
08.12.2018 15:00:00 6,5 4,7 6,4 6,0 6,2 7,3 26 14 46 25 SSW 992,5 26 0 0,0
08.12.2018 14:00:00 6,1 4,6 5,7 6,0 6,1 7,3 26 14 47 25 SSW 993,0 8 0 0,0
08.12.2018 13:00:00 6,8 3,9 6,7 5,9 6,1 7,3 22 12 46 25 SW 993,4 29 0 0,0
08.12.2018 12:00:00 6,2 3,8 5,8 5,7 6,1 7,3 24 13 48 26 SW 994,0 24 0 0,0
08.12.2018 11:00:00 5,6 3,8 5,2 5,3 6,2 7,3 26 14 47 26 SW 994,6 26 0 1,2
08.12.2018 10:00:00 5,5 3,3 4,5 5,1 6,3 7,2 26 14 48 26 SW 995,8 5 0 0,1
08.12.2018 09:00:00 5,5 2,7 5,4 4,9 6,4 7,2 23 12 37 20 SSW 996,0 38 0 0,0
08.12.2018 08:00:00 5,5 2,8 5,2 4,9 6,6 7,2 20 11 42 23 SW 996,6 29 0 0,0
08.12.2018 07:00:00 5,9 2,9 5,2 5,3 6,8 7,2 26 14 48 26 WSW 996,1 27 0 0,0
08.12.2018 06:00:00 6,3 3,2 5,9 5,6 7,0 7,2 34 18 53 28 W 995,8 31 0 0,0
08.12.2018 05:00:00 6,6 4,1 6,0 6,1 7,2 7,2 32 17 49 26 WSW 995,2 26 0 0,0
08.12.2018 04:00:00 6,6 4,2 5,8 6,5 7,4 7,2 29 16 51 28 W 994,8 33 0 0,1
08.12.2018 03:00:00 6,8 4,8 6,1 6,9 7,6 7,2 35 19 55 30 W 994,1 23 0 0,2
08.12.2018 02:00:00 6,8 5,4 6,2 7,7 7,6 7,2 42 23 90 49 W 992,8 10 0 0,3
08.12.2018 01:00:00 9,3 8,7 9,0 8,6 7,6 7,2 18 10 32 18 SSW 991,1 8 0 0,3
08.12.2018 00:00:00 9,5 9,2 9,2 8,7 7,6 7,2 17 9 36 19 SSW 991,4 13 0 0,0
07.12.2018 23:00:00 9,6 9,4 9,4 8,8 7,6 7,2 16 9 32 18 SSW 992,0 10 0 0,6
07.12.2018 22:00:00 9,8 9,7 9,6 8,8 7,5 7,1 15 8 31 17 SSW 992,8 4,2 0 0,1
07.12.2018 21:00:00 9,9 9,8 9,7 8,9 7,5 7,1 15 8 28 15 SSW 993,6 8 0 0,3
07.12.2018 20:00:00 9,9 9,9 9,8 8,9 7,4 7,1 14 8 29 15 SSW 994,6 3,6 0 0,3
07.12.2018 19:00:00 9,9 9,9 9,7 8,9 7,4 7,1 15 8 28 15 SSW 995,8 3,8 0 1,4
07.12.2018 18:00:00 9,9 9,9 9,8 8,9 7,3 7,1 16 8 26 14 SSW 996,6 3,4 0 0,4
07.12.2018 17:00:00 10,0 10,0 9,9 9,0 7,3 7,1 16 8 27 15 SSW 997,6 4,7 0 1,5
07.12.2018 16:00:00 9,9 9,8 9,8 9,0 7,2 7,1 14 8 26 14 SSW 998,7 2,0 0 0,4
07.12.2018 15:00:00 10,2 10,2 10,0 9,2 7,0 7,1 13 7 26 14 SSW 999,6 8 0 0,8
07.12.2018 14:00:00 10,5 10,4 10,4 9,3 6,8 7,1 15 8 24 13 SSW 1000,8 1,9 0 0,1
07.12.2018 13:00:00 10,5 10,5 10,4 9,3 6,6 7,2 12 7 24 13 SW 1001,8 6 0 0,2
07.12.2018 12:00:00 10,4 10,3 10,4 9,1 6,4 7,2 12 7 22 12 SW 1003,0 3,3 0 0,0
07.12.2018 11:00:00 10,2 10,1 10,2 8,7 6,2 7,2 14 8 24 13 WSW 1003,9 3,0 0 0,0
07.12.2018 10:00:00 9,9 9,7 9,8 8,1 6,1 7,2 16 8 29 15 WSW 1004,3 12 0 0,1
07.12.2018 09:00:00 9,8 9,6 9,6 7,9 5,9 7,2 14 8 29 16 SW 1004,7 4,7 0 0,0
07.12.2018 08:00:00 9,3 9,0 9,0 7,8 5,8 7,2 20 11 36 19 W 1004,9 8 0 0,0
07.12.2018 07:00:00 10,0 9,6 9,6 7,9 5,6 7,2 24 13 41 22 W 1004,9 16 0 0,1
07.12.2018 06:00:00 10,0 9,7 9,7 7,7 5,3 7,2 28 15 39 21 W 1005,0 3,8 0 0,1
07.12.2018 05:00:00 10,0 9,5 9,7 7,5 5,1 7,2 24 13 38 20 WSW 1005,1 12 0 0,0
07.12.2018 04:00:00 9,4 9,2 9,2 7,1 4,9 7,2 18 10 38 21 SW 1005,7 6 0 0,2
07.12.2018 03:00:00 9,1 9,0 8,9 6,7 4,6 7,2 18 10 29 16 SW 1006,5 2,3 0 0,4
07.12.2018 02:00:00 8,7 8,7 8,5 6,2 4,4 7,2 17 9 29 15 SSW 1006,9 2,0 0 0,9
07.12.2018 01:00:00 8,4 8,4 8,2 5,8 4,2 7,2 16 8 29 15 SW 1008,1 2,6 0 0,2
07.12.2018 00:00:00 7,4 7,4 7,2 5,4 4,0 7,2 13 7 24 13 SSW 1008,5 1,8 0 0,1
06.12.2018 23:00:00 7,3 7,3 7,1 5,1 3,8 7,2 15 8 28 15 SW 1009,3 1,8 0 0,0
06.12.2018 22:00:00 6,5 6,5 6,4 4,6 3,6 7,3 16 9 31 17 SW 1009,9 2,3 0 0,0
06.12.2018 21:00:00 5,7 5,7 5,5 4,0 3,5 7,3 15 8 29 15 SW 1010,5 1,9 0 0,0
06.12.2018 20:00:00 4,8 4,7 4,7 3,7 3,4 7,3 12 7 26 14 SW 1010,9 3,7 0 0,0
06.12.2018 19:00:00 4,2 4,1 4,1 3,4 3,3 7,3 16 9 24 13 SSW 1011,5 1,8 0 0,3
06.12.2018 18:00:00 3,8 3,6 3,6 3,2 3,3 7,3 15 8 26 14 SSW 1012,0 2,0 0 0,1
06.12.2018 17:00:00 3,5 2,7 3,2 3,0 3,2 7,3 14 7 27 14 SSW 1012,3 6 0 0,1
06.12.2018 16:00:00 3,3 2,2 2,9 3,0 3,1 7,3 14 8 25 14 SSW 1012,8 10 0 0,0
06.12.2018 15:00:00 3,1 2,0 2,7 3,0 3,0 7,3 13 7 27 15 SSW 1012,9 7 0 0,0
06.12.2018 14:00:00 3,0 1,4 2,7 3,0 2,9 7,3 13 7 25 13 S 1013,3 20 0 0,0
06.12.2018 13:00:00 2,8 1,4 2,6 2,9 2,7 7,3 13 7 27 15 S 1013,8 20 0 0,0
06.12.2018 12:00:00 2,2 1,1 2,0 2,6 2,6 7,3 16 9 34 18 S 1014,4 12 0 0,1
06.12.2018 11:00:00 2,1 1,2 2,0 2,2 2,4 7,4 15 8 29 16 S 1015,7 4,2 0 0,3
06.12.2018 10:00:00 2,2 0,7 1,7 1,8 2,3 7,4 13 7 29 16 S 1016,5 9 0 0,0
06.12.2018 09:00:00 2,1 0,4 1,6 1,4 2,3 7,4 15 8 29 15 SSE 1016,1 15 0 0,3
06.12.2018 08:00:00 2,1 0,3 1,3 1,1 2,2 7,4 16 9 28 15 SSE 1016,3 11 0 0,4
06.12.2018 07:00:00 2,4 -0,1 1,6 0,7 2,2 7,4 17 9 32 17 SSE 1016,4 17 0 0,0
06.12.2018 06:00:00 2,3 -0,6 2,0 0,5 2,2 7,4 17 9 33 18 SSE 1016,9 24 0 0,0
06.12.2018 05:00:00 2,1 -0,5 1,6 0,4 2,3 7,4 14 8 29 15 SSE 1017,5 26 0 0,0
06.12.2018 04:00:00 2,1 -0,4 1,6 0,4 2,3 7,4 14 7 26 14 SSE 1018,3 24 0 0,0
06.12.2018 03:00:00 2,1 -0,2 1,4 0,4 2,3 7,4 14 7 24 13 S 1019,0 27 0 0,0
06.12.2018 02:00:00 1,8 -0,3 1,2 0,4 2,4 7,4 12 7 23 13 S 1019,7 27 0 0,0
06.12.2018 01:00:00 1,8 0,1 1,0 0,4 2,5 7,4 9 5 19 10 SSE 1020,8 23 0 0,0
06.12.2018 00:00:00 1,6 -0,1 0,4 0,5 2,5 7,4 10 5 23 12 SSE 1021,7 23 0 0,0
05.12.2018 23:00:00 1,7 -0,2 0,7 0,5 2,6 7,4 13 7 21 12 S 1022,7 23 0 0,0
05.12.2018 22:00:00 1,7 0,2 0,8 0,5 2,7 7,4 12 6 22 12 S 1023,2 19 0 0,0
05.12.2018 21:00:00 1,7 0,5 0,4 0,5 2,8 7,4 13 7 23 12 S 1023,4 23 0 0,0
05.12.2018 20:00:00 2,2 0,6 0,9 0,5 2,9 7,4 14 7 23 13 SSW 1023,8 21 0 0,0
05.12.2018 19:00:00 2,2 0,8 0,7 0,2 3,1 7,5 13 7 21 11 S 1024,3 22 0 0,0
05.12.2018 18:00:00 2,4 0,5 0,1 0,7 3,3 7,5 10 5 20 11 SSW 1024,7 20 0 0,0
05.12.2018 17:00:00 2,9 0,7 1,3 1,3 3,5 7,5 11 6 18 10 SW 1025,0 19 0 0,0
05.12.2018 16:00:00 3,5 1,1 1,8 2,2 3,5 7,5 11 6 25 13 WSW 1025,2 37 16 0,0
05.12.2018 15:00:00 4,9 1,7 3,5 3,2 3,3 7,5 14 8 27 15 WSW 1025,4 34 57 0,0
05.12.2018 14:00:00 5,6 1,4 5,7 3,6 3,1 7,5 19 10 29 16 WSW 1025,6 13 60 0,0
05.12.2018 13:00:00 5,1 1,1 4,6 3,1 2,9 7,5 21 12 29 15 WSW 1025,8 11 60 0,0
05.12.2018 12:00:00 4,8 2,2 4,6 2,4 2,8 7,5 19 10 40 22 WSW 1025,8 7 32 0,0
05.12.2018 11:00:00 4,1 1,6 3,9 1,4 2,7 7,5 20 11 29 15 WSW 1026,0 16 60 0,0
05.12.2018 10:00:00 2,3 1,1 1,3 0,7 2,8 7,5 18 10 27 15 WSW 1025,6 25 57 0,0
05.12.2018 09:00:00 2,1 1,1 1,2 0,6 2,8 7,5 21 11 29 15 WSW 1025,3 24 9 0,0
05.12.2018 08:00:00 2,3 1,5 1,0 0,4 2,9 7,4 18 10 27 15 W 1024,9 27 0 0,0
05.12.2018 07:00:00 2,2 1,5 1,0 0,6 3,0 7,4 19 10 32 17 WSW 1024,3 24 0 0,0
05.12.2018 06:00:00 2,4 1,6 1,2 0,5 3,2 7,4 21 11 29 16 W 1024,0 26 0 0,0
05.12.2018 05:00:00 2,7 1,6 1,3 0,6 3,3 7,4 17 9 26 14 W 1023,4 27 0 0,0
05.12.2018 04:00:00 3,0 0,7 0,9 0,9 3,4 7,4 16 9 35 19 W 1023,1 32 0 0,0
05.12.2018 03:00:00 4,1 0,8 2,4 1,1 3,6 7,4 21 12 35 19 W 1022,4 32 0 0,0
05.12.2018 02:00:00 4,2 0,2 2,5 1,2 3,7 7,4 21 12 41 22 WNW 1022,0 31 0 0,0
05.12.2018 01:00:00 4,1 -0,1 2,3 1,2 3,8 7,4 23 13 41 22 W 1021,4 27 0 0,0
05.12.2018 00:00:00 4,2 -0,4 2,6 1,4 4,0 7,4 27 15 46 25 WNW 1020,7 34 0 0,0
04.12.2018 23:00:00 4,3 -0,1 2,9 1,6 4,1 7,4 29 16 50 27 WNW 1019,8 33 0 0,0
04.12.2018 22:00:00 4,5 0,0 2,8 1,6 4,3 7,4 27 14 41 22 WNW 1019,0 36 0 0,0
04.12.2018 21:00:00 4,4 0,1 2,8 1,8 4,5 7,4 26 14 48 26 WNW 1018,0 38 0 0,0
04.12.2018 20:00:00 4,5 0,0 3,1 2,0 4,7 7,3 27 15 48 26 WNW 1017,2 42 0 0,0
04.12.2018 19:00:00 4,6 0,5 3,3 2,2 4,9 7,3 30 16 47 26 W 1016,3 33 0 0,0
04.12.2018 18:00:00 4,7 0,2 3,2 2,4 5,1 7,3 30 16 48 26 W 1015,5 32 0 0,0
04.12.2018 17:00:00 5,0 -0,6 3,5 2,7 5,3 7,3 25 14 48 26 WNW 1014,7 43 0 0,0
04.12.2018 16:00:00 5,2 0,2 3,7 3,5 5,5 7,3 29 16 53 29 WNW 1013,3 30 19 0,0

tt = Température de l'air
td = dewpoint
tt 5cm = Température de l'air 5cm
tt -5cm = Température de l'air -5cm
tt -20cm = Température de l'air -20cm
tt -100cm = Température de l'air -100cm
ff = Vitesse du vent
fx = gusts
dd = Direction du vent
ppp = reduced air pressure
vv = visibility
sd = Ensoleillement
rr = Quantités de précipitations

stations d'obs. à proximité